Date String (YYYY-MM-DD hh:mm:ss) UTC,Instrument flags,Ambient pressure (hPa),Sample flow (lpm),Bypass flow (lpm),Sample temperature (°C),Ambient temperature (°C),ASC tube jacket temperature (°C),LED temperature (°C),Box temperature (°C),Sample RH (%),Span deviation,Mass concentration (μg/m³),Mass concentration (μg/m³),Mass concentration (μg/m³)
DateTimeUTC,F1_M11,P_M11,Q1_M11,Q2_M11,T1_M11,T2_M11,T3_M11,T4_M11,T5_M11,U1_M11,ZSPAN_M11,X0_M11,X2_M11,X1_M11
2023-05-28 20:00:00,,0828.3,5.01,0.00,29.4,25.8,00.0,37.6,30.9,20.0,0000.0,0010.94,0004.39,0003.54
2023-05-28 20:01:00,,0828.3,5.01,0.00,29.4,25.9,00.0,37.6,30.8,20.6,0000.0,0010.94,0004.35,0003.53
2023-05-28 20:02:00,,0828.3,4.99,0.00,29.3,26.2,00.0,37.6,30.8,19.5,0000.0,0010.39,0004.32,0003.51
2023-05-28 20:03:00,,0828.3,5.00,0.00,29.3,26.5,00.0,37.6,30.8,19.9,0000.0,0010.04,0004.32,0003.50
2023-05-28 20:04:00,,0828.2,4.99,0.00,29.3,26.8,00.0,37.6,30.9,19.7,0000.0,0009.60,0004.35,0003.50
2023-05-28 20:05:00,,0828.3,5.01,0.00,29.3,27.1,00.0,37.6,31.0,19.2,0000.0,0009.58,0004.37,0003.50
2023-05-28 20:06:00,,0828.3,5.01,0.00,29.3,27.4,00.0,37.6,31.0,20.6,0000.0,0008.83,0004.30,0003.46
2023-05-28 20:07:00,,0828.3,5.00,0.00,29.3,27.6,00.0,37.6,31.1,20.0,0000.0,0008.58,0004.28,0003.45
2023-05-28 20:08:00,,0828.2,5.00,0.00,29.4,27.8,00.0,37.7,31.1,20.3,0000.0,0008.61,0004.30,0003.45
2023-05-28 20:09:00,,0828.3,5.01,0.00,29.4,27.9,00.0,37.7,31.1,20.0,0000.0,0008.72,0004.33,0003.46
2023-05-28 20:10:00,,0828.3,5.00,0.00,29.4,28.0,00.0,37.7,31.2,19.5,0000.0,0008.61,0004.37,0003.46
2023-05-28 20:11:00,,0828.3,5.00,0.00,29.5,28.2,00.0,37.7,31.2,19.6,0000.0,0008.69,0004.43,0003.46
2023-05-28 20:12:00,,0828.2,4.99,0.00,29.5,28.0,00.0,37.7,31.2,19.2,0000.0,0008.95,0004.42,0003.45
2023-05-28 20:13:00,,0828.2,4.99,0.00,29.5,26.5,00.0,37.6,31.0,19.3,0000.0,0008.51,0004.39,0003.44
2023-05-28 20:14:00,,0828.1,5.01,0.00,29.4,25.9,00.0,37.6,30.9,20.1,0000.0,0008.80,0004.43,0003.44
2023-05-28 20:15:00,,0828.1,5.01,0.00,29.4,26.0,00.0,37.6,30.8,20.6,0000.0,0009.12,0004.43,0003.44
2023-05-28 20:16:00,,0828.1,4.99,0.00,29.3,26.3,00.0,37.6,30.8,20.4,0000.0,0009.11,0004.40,0003.44
2023-05-28 20:17:00,,0828.1,5.00,0.00,29.3,26.6,00.0,37.6,30.9,19.9,0000.0,0009.45,0004.43,0003.46
2023-05-28 20:18:00,,0828.0,5.01,0.00,29.3,26.9,00.0,37.6,30.9,20.2,0000.0,0009.59,0004.40,0003.46
2023-05-28 20:19:00,,0827.8,4.99,0.00,29.3,27.2,00.0,37.6,31.0,20.8,0000.0,0009.99,0004.40,0003.46
2023-05-28 20:20:00,,0827.8,4.99,0.00,29.3,27.4,00.0,37.6,31.0,19.9,0000.0,0010.21,0004.36,0003.45
2023-05-28 20:21:00,,0827.8,4.99,0.00,29.4,27.6,00.0,37.6,31.1,20.5,0000.0,0010.17,0004.33,0003.46
2023-05-28 20:22:00,,0827.8,5.00,0.00,29.4,27.8,00.0,37.7,31.1,20.2,0000.0,0010.03,0004.28,0003.47
2023-05-28 20:23:00,,0827.7,5.01,0.00,29.4,27.9,00.0,37.7,31.2,20.0,0000.0,0009.77,0004.27,0003.47
2023-05-28 20:24:00,,0827.8,5.00,0.00,29.4,28.1,00.0,37.7,31.2,19.7,0000.0,0009.93,0004.29,0003.47
2023-05-28 20:25:00,,0827.8,4.98,0.00,29.5,28.1,00.0,37.7,31.2,20.1,0000.0,0009.86,0004.30,0003.48
2023-05-28 20:26:00,,0827.8,5.00,0.00,29.5,26.9,00.0,37.7,31.1,19.9,0000.0,0009.60,0004.31,0003.48
2023-05-28 20:27:00,,0827.8,5.00,0.00,29.4,25.9,00.0,37.6,30.9,19.9,0000.0,0009.31,0004.25,0003.47
2023-05-28 20:28:00,,0827.8,5.01,0.00,29.4,25.9,00.0,37.5,30.8,19.3,0000.0,0009.10,0004.26,0003.46
2023-05-28 20:29:00,,0827.8,5.02,0.00,29.3,26.2,00.0,37.6,30.8,19.5,0000.0,0009.09,0004.29,0003.45
2023-05-28 20:30:00,,0827.7,4.99,0.00,29.3,26.5,00.0,37.6,30.8,19.7,0000.0,0008.63,0004.26,0003.45
2023-05-28 20:31:00,,0827.8,4.99,0.00,29.3,26.8,00.0,37.6,30.9,19.6,0000.0,0008.53,0004.29,0003.44
2023-05-28 20:32:00,,0827.7,5.00,0.00,29.3,27.1,00.0,37.6,30.9,19.4,0000.0,0009.27,0004.33,0003.43
2023-05-28 20:33:00,,0827.7,5.00,0.00,29.3,27.3,00.0,37.6,31.0,19.3,0000.0,0010.05,0004.30,0003.41
2023-05-28 20:34:00,,0827.8,5.01,0.00,29.3,27.5,00.0,37.6,31.0,19.6,0000.0,0010.41,0004.32,0003.41
2023-05-28 20:35:00,,0827.7,5.00,0.00,29.4,27.7,00.0,37.6,31.1,19.1,0000.0,0010.27,0004.31,0003.40
2023-05-28 20:36:00,,0827.9,4.99,0.00,29.4,27.9,00.0,37.7,31.1,19.0,0000.0,0010.15,0004.30,0003.40
2023-05-28 20:37:00,,0828.1,4.99,0.00,29.4,28.0,00.0,37.7,31.2,19.0,0000.0,0010.16,0004.26,0003.40
2023-05-28 20:38:00,,0828.1,5.00,0.00,29.5,28.1,00.0,37.7,31.2,19.3,0000.0,0010.39,0004.29,0003.39
2023-05-28 20:39:00,,0828.2,5.01,0.00,29.5,28.2,00.0,37.7,31.3,18.8,0000.0,0010.56,0004.28,0003.40
2023-05-28 20:40:00,,0828.2,5.00,0.00,29.5,27.6,00.0,37.7,31.2,18.4,0000.0,0010.76,0004.31,0003.40
2023-05-28 20:41:00,,0828.2,4.99,0.00,29.5,26.1,00.0,37.6,30.9,18.4,0000.0,0011.00,0004.35,0003.40
2023-05-28 20:42:00,,0828.2,5.01,0.00,29.4,25.7,00.0,37.6,30.9,18.1,0000.0,0011.06,0004.35,0003.41
2023-05-28 20:43:00,,0828.1,5.01,0.00,29.3,25.9,00.0,37.6,30.7,18.9,0000.0,0010.83,0004.34,0003.40
2023-05-28 20:44:00,,0828.2,4.99,0.00,29.3,26.2,00.0,37.6,30.8,18.8,0000.0,0010.80,0004.39,0003.40
2023-05-28 20:45:00,,0828.2,5.00,0.00,29.3,26.5,00.0,37.6,30.8,20.1,0000.0,0010.23,0004.39,0003.41
2023-05-28 20:46:00,,0828.3,5.00,0.00,29.3,26.9,00.0,37.6,30.9,19.9,0000.0,0010.59,0004.36,0003.39
2023-05-28 20:47:00,,0828.3,5.01,0.00,29.3,27.1,00.0,37.6,31.0,20.4,0000.0,0011.70,0004.37,0003.40
2023-05-28 20:48:00,,0828.3,5.00,0.00,29.3,27.4,00.0,37.6,31.0,22.2,0000.0,0011.96,0004.39,0003.40
2023-05-28 20:49:00,,0828.2,5.00,0.00,29.3,27.6,00.0,37.6,31.1,23.2,0000.0,0012.12,0004.41,0003.39
2023-05-28 20:50:00,,0828.2,5.00,0.00,29.4,27.8,00.0,37.6,31.1,22.7,0000.0,0012.61,0004.42,0003.39
2023-05-28 20:51:00,,0828.2,5.00,0.00,29.4,27.9,00.0,37.7,31.2,24.0,0000.0,0012.68,0004.43,0003.40
2023-05-28 20:52:00,,0828.2,5.00,0.00,29.4,28.1,00.0,37.7,31.2,25.1,0000.0,0013.20,0004.47,0003.42
2023-05-28 20:53:00,,0828.2,5.00,0.00,29.5,28.2,00.0,37.7,31.2,25.2,0000.0,0013.44,0004.55,0003.45
2023-05-28 20:54:00,,0828.2,4.98,0.00,29.5,27.3,00.0,37.7,31.1,25.0,0000.0,0013.61,0004.65,0003.49
2023-05-28 20:55:00,,0828.2,5.01,0.00,29.4,25.7,00.0,37.6,30.9,26.9,0000.0,0014.34,0004.86,0003.56
2023-05-28 20:56:00,,0828.2,5.02,0.00,29.4,25.4,00.0,37.5,30.8,25.6,0000.0,0015.52,0005.12,0003.64
2023-05-28 20:57:00,,0828.2,5.00,0.00,29.3,25.7,00.0,37.5,30.7,23.9,0000.0,0016.92,0005.39,0003.72
2023-05-28 20:58:00,,0828.3,5.00,0.00,29.2,26.0,00.0,37.5,30.7,23.0,0000.0,0017.55,0005.62,0003.77
2023-05-28 20:59:00,,0828.3,5.00,0.00,29.2,26.3,00.0,37.5,30.7,22.7,0000.0,0018.15,0005.84,0003.80
